Time,TemperatureF,DewpointF,PressureIn,WindDirection,WindDirectionDegrees,WindSpeedMPH,WindSpeedGustMPH,Humidity,HourlyPrecipIn,Conditions,Clouds,dailyrainin,SoftwareType,DateUTC
2013-01-11 00:00:00,59.3,57.0,30.01,SSW,195,4.0,7.0,92,0.00,,,0.00,Wunderground v.1.15,2013-01-11 07:00:00,
2013-01-11 00:05:00,59.4,57.1,30.01,South,189,4.0,8.0,92,0.00,,,0.00,Wunderground v.1.15,2013-01-11 07:05:00,
2013-01-11 00:15:00,59.5,57.2,30.01,South,176,4.0,8.0,92,0.00,,,0.00,Wunderground v.1.15,2013-01-11 07:15:00,
2013-01-11 00:25:00,59.5,57.2,30.01,SSE,165,3.0,8.0,92,0.00,,,0.00,Wunderground v.1.15,2013-01-11 07:25:00,
2013-01-11 00:30:00,59.5,57.2,30.01,SSE,163,3.0,8.0,92,0.00,,,0.00,Wunderground v.1.15,2013-01-11 07:30:00,
2013-01-11 00:35:00,59.5,57.2,30.00,SSW,194,4.0,8.0,92,0.00,,,0.00,Wunderground v.1.15,2013-01-11 07:35:00,
2013-01-11 00:40:00,59.5,57.2,30.00,SSW,198,3.0,8.0,92,0.00,,,0.00,Wunderground v.1.15,2013-01-11 07:40:00,
2013-01-11 00:45:00,59.6,57.3,30.00,SSE,158,3.0,8.0,92,0.00,,,0.00,Wunderground v.1.15,2013-01-11 07:45:00,
2013-01-11 00:55:00,59.8,57.5,30.00,SSW,198,5.0,8.0,92,0.00,,,0.00,Wunderground v.1.15,2013-01-11 07:55:00,
2013-01-11 01:00:00,59.8,57.5,30.00,SSE,149,4.0,4.0,92,0.00,,,0.00,Wunderground v.1.15,2013-01-11 08:00:00,
2013-01-11 01:05:00,59.8,57.5,30.00,South,174,2.0,8.0,92,0.00,,,0.00,Wunderground v.1.15,2013-01-11 08:05:00,
2013-01-11 01:15:00,59.6,57.3,30.00,SSE,166,2.0,3.0,92,0.00,,,0.00,Wunderground v.1.15,2013-01-11 08:15:00,
2013-01-11 01:20:00,59.5,57.2,30.00,SE,145,2.0,2.0,92,0.00,,,0.00,Wunderground v.1.15,2013-01-11 08:20:00,
2013-01-11 01:30:00,59.4,57.4,30.00,SSE,153,2.0,2.0,93,0.00,,,0.00,Wunderground v.1.15,2013-01-11 08:30:00,
2013-01-11 01:35:00,59.4,57.4,30.00,South,186,2.0,8.0,93,0.00,,,0.00,Wunderground v.1.15,2013-01-11 08:35:00,
2013-01-11 01:40:00,59.3,57.3,30.00,SSW,203,1.0,8.0,93,0.00,,,0.00,Wunderground v.1.15,2013-01-11 08:40:00,
2013-01-11 01:45:00,58.9,56.6,30.00,WSW,252,1.0,8.0,92,0.00,,,0.00,Wunderground v.1.15,2013-01-11 08:45:00,
2013-01-11 01:50:00,58.4,56.1,30.00,WSW,247,1.0,1.0,92,0.00,,,0.00,Wunderground v.1.15,2013-01-11 08:50:00,
2013-01-11 02:00:00,57.9,56.2,30.00,SSW,205,1.0,8.0,94,0.00,,,0.00,Wunderground v.1.15,2013-01-11 09:00:00,
2013-01-11 02:05:00,58.1,56.4,29.99,SSW,203,1.0,8.0,94,0.00,,,0.00,Wunderground v.1.15,2013-01-11 09:05:00,
2013-01-11 02:15:00,58.2,56.5,29.99,SW,232,1.0,2.0,94,0.00,,,0.00,Wunderground v.1.15,2013-01-11 09:15:00,
2013-01-11 02:20:00,58.2,56.5,29.99,SSW,204,2.0,2.0,94,0.00,,,0.00,Wunderground v.1.15,2013-01-11 09:20:00,
2013-01-11 02:25:00,58.0,56.3,29.99,SW,225,2.0,2.0,94,0.00,,,0.00,Wunderground v.1.15,2013-01-11 09:25:00,
2013-01-11 02:35:00,57.5,55.8,29.98,SSW,204,1.0,2.0,94,0.00,,,0.00,Wunderground v.1.15,2013-01-11 09:35:00,
2013-01-11 02:40:00,57.6,56.2,29.98,SW,235,1.0,2.0,95,0.00,,,0.00,Wunderground v.1.15,2013-01-11 09:40:00,
2013-01-11 02:45:00,57.4,55.7,29.97,SSW,205,1.0,2.0,94,0.00,,,0.00,Wunderground v.1.15,2013-01-11 09:45:00,
2013-01-11 02:50:00,57.5,56.1,29.97,SSW,204,1.0,2.0,95,0.00,,,0.00,Wunderground v.1.15,2013-01-11 09:50:00,
2013-01-11 02:55:00,57.7,56.3,29.97,SW,214,1.0,2.0,95,0.00,,,0.00,Wunderground v.1.15,2013-01-11 09:55:00,
2013-01-11 03:05:00,57.5,55.8,29.97,WSW,243,1.0,2.0,94,0.00,,,0.00,Wunderground v.1.15,2013-01-11 10:05:00,
2013-01-11 03:15:00,56.8,55.4,29.97,West,266,1.0,2.0,95,0.00,,,0.00,Wunderground v.1.15,2013-01-11 10:15:00,
2013-01-11 03:20:00,56.8,55.4,29.97,WSW,257,1.0,1.0,95,0.00,,,0.00,Wunderground v.1.15,2013-01-11 10:20:00,
2013-01-11 03:25:00,56.9,55.5,29.96,WSW,238,0.0,2.0,95,0.00,,,0.00,Wunderground v.1.15,2013-01-11 10:25:00,
2013-01-11 03:30:00,56.8,55.4,29.96,WSW,238,1.0,2.0,95,0.00,,,0.00,Wunderground v.1.15,2013-01-11 10:30:00,
2013-01-11 03:40:00,56.9,55.8,29.96,SSW,212,1.0,2.0,96,0.00,,,0.00,Wunderground v.1.15,2013-01-11 10:40:00,
2013-01-11 03:45:00,56.8,55.4,29.96,SW,229,1.0,2.0,95,0.00,,,0.00,Wunderground v.1.15,2013-01-11 10:45:00,
2013-01-11 03:50:00,56.6,55.2,29.96,West,263,1.0,1.0,95,0.00,,,0.00,Wunderground v.1.15,2013-01-11 10:50:00,
2013-01-11 03:55:00,56.4,55.0,29.96,WSW,252,0.0,2.0,95,0.00,,,0.00,Wunderground v.1.15,2013-01-11 10:55:00,
2013-01-11 04:00:00,56.3,54.9,29.96,WSW,252,0.0,2.0,95,0.00,,,0.00,Wunderground v.1.15,2013-01-11 11:00:00,
2013-01-11 04:05:00,56.1,55.0,29.96,WSW,252,0.0,2.0,96,0.00,,,0.00,Wunderground v.1.15,2013-01-11 11:05:00,
2013-01-11 04:15:00,56.2,55.1,29.95,WSW,252,0.0,1.0,96,0.00,,,0.00,Wunderground v.1.15,2013-01-11 11:15:00,
2013-01-11 04:20:00,56.2,55.1,29.95,WSW,252,0.0,1.0,96,0.00,,,0.00,Wunderground v.1.15,2013-01-11 11:20:00,
2013-01-11 04:25:00,56.3,55.2,29.95,WSW,252,0.0,1.0,96,0.00,,,0.00,Wunderground v.1.15,2013-01-11 11:25:00,
2013-01-11 04:30:00,56.5,55.4,29.95,WSW,252,0.0,1.0,96,0.00,,,0.00,Wunderground v.1.15,2013-01-11 11:30:00,
2013-01-11 04:35:00,56.5,55.4,29.95,WSW,253,0.0,1.0,96,0.00,,,0.00,Wunderground v.1.15,2013-01-11 11:35:00,
2013-01-11 04:45:00,56.0,54.9,29.95,North,8,0.0,1.0,96,0.00,,,0.00,Wunderground v.1.15,2013-01-11 11:45:00,
2013-01-11 04:50:00,55.9,54.8,29.95,NE,37,1.0,1.0,96,0.00,,,0.00,Wunderground v.1.15,2013-01-11 11:50:00,
2013-01-11 04:55:00,55.9,54.8,29.95,NE,39,1.0,1.0,96,0.00,,,0.00,Wunderground v.1.15,2013-01-11 11:55:00,
2013-01-11 05:00:00,56.0,54.9,29.95,NE,54,1.0,1.0,96,0.00,,,0.00,Wunderground v.1.15,2013-01-11 12:00:00,
2013-01-11 05:05:00,56.4,55.6,29.95,ENE,58,1.0,2.0,97,0.00,,,0.00,Wunderground v.1.15,2013-01-11 12:05:00,
2013-01-11 05:15:00,56.7,55.9,29.95,ENE,58,0.0,2.0,97,0.00,,,0.00,Wunderground v.1.15,2013-01-11 12:15:00,
2013-01-11 05:20:00,56.8,56.0,29.95,ENE,58,0.0,2.0,97,0.00,,,0.00,Wunderground v.1.15,2013-01-11 12:20:00,
2013-01-11 05:25:00,56.9,56.1,29.95,ENE,69,1.0,2.0,97,0.00,,,0.00,Wunderground v.1.15,2013-01-11 12:25:00,
2013-01-11 05:35:00,56.6,55.5,29.95,ENE,70,1.0,1.0,96,0.00,,,0.00,Wunderground v.1.15,2013-01-11 12:35:00,
2013-01-11 05:40:00,56.0,54.6,29.95,ENE,69,0.0,1.0,95,0.00,,,0.00,Wunderground v.1.15,2013-01-11 12:40:00,
2013-01-11 05:50:00,55.7,54.6,29.95,ENE,69,1.0,1.0,96,0.00,,,0.00,Wunderground v.1.15,2013-01-11 12:50:00,
2013-01-11 05:55:00,55.5,54.4,29.95,ENE,70,1.0,1.0,96,0.00,,,0.00,Wunderground v.1.15,2013-01-11 12:55:00,
2013-01-11 06:00:00,55.4,54.3,29.95,ENE,70,1.0,1.0,96,0.00,,,0.00,Wunderground v.1.15,2013-01-11 13:00:00,
2013-01-11 06:05:00,55.3,54.2,29.95,ENE,69,1.0,2.0,96,0.00,,,0.00,Wunderground v.1.15,2013-01-11 13:05:00,
2013-01-11 06:15:00,54.7,53.3,29.95,ENE,69,0.0,2.0,95,0.00,,,0.00,Wunderground v.1.15,2013-01-11 13:15:00,
2013-01-11 06:20:00,55.1,54.3,29.95,ENE,68,1.0,2.0,97,0.00,,,0.00,Wunderground v.1.15,2013-01-11 13:20:00,
2013-01-11 06:25:00,55.1,54.0,29.95,ENE,63,2.0,2.0,96,0.00,,,0.00,Wunderground v.1.15,2013-01-11 13:25:00,
2013-01-11 06:35:00,55.8,55.0,29.95,ENE,64,2.0,2.0,97,0.00,,,0.00,Wunderground v.1.15,2013-01-11 13:35:00,
2013-01-11 06:40:00,56.0,55.2,29.95,NE,44,2.0,2.0,97,0.00,,,0.00,Wunderground v.1.15,2013-01-11 13:40:00,
2013-01-11 06:45:00,55.8,54.7,29.95,NE,35,1.0,2.0,96,0.00,,,0.00,Wunderground v.1.15,2013-01-11 13:45:00,
2013-01-11 06:50:00,55.7,54.6,29.95,NE,36,0.0,2.0,96,0.00,,,0.00,Wunderground v.1.15,2013-01-11 13:50:00,
2013-01-11 07:00:00,54.5,53.4,29.96,NNW,345,1.0,2.0,96,0.00,,,0.00,Wunderground v.1.15,2013-01-11 14:00:00,
2013-01-11 07:05:00,54.5,53.4,29.96,NNW,335,1.0,2.0,96,0.00,,,0.00,Wunderground v.1.15,2013-01-11 14:05:00,
2013-01-11 07:15:00,55.3,54.5,29.96,NNE,19,1.0,2.0,97,0.00,,,0.00,Wunderground v.1.15,2013-01-11 14:15:00,
2013-01-11 07:20:00,55.7,54.9,29.96,NNE,25,1.0,1.0,97,0.00,,,0.00,Wunderground v.1.15,2013-01-11 14:20:00,
2013-01-11 07:25:00,55.9,55.1,29.96,NNE,25,1.0,2.0,97,0.00,,,0.00,Wunderground v.1.15,2013-01-11 14:25:00,
2013-01-11 07:30:00,56.4,55.6,29.96,NNE,25,1.0,2.0,97,0.00,,,0.00,Wunderground v.1.15,2013-01-11 14:30:00,
2013-01-11 07:35:00,56.8,56.0,29.96,NE,46,1.0,2.0,97,0.00,,,0.00,Wunderground v.1.15,2013-01-11 14:35:00,
2013-01-11 07:40:00,57.3,56.5,29.96,NE,52,2.0,2.0,97,0.00,,,0.00,Wunderground v.1.15,2013-01-11 14:40:00,
2013-01-11 07:50:00,57.4,56.6,29.96,NE,51,2.0,2.0,97,0.00,,,0.00,Wunderground v.1.15,2013-01-11 14:50:00,
2013-01-11 07:55:00,57.4,56.6,29.96,ENE,58,2.0,2.0,97,0.00,,,0.00,Wunderground v.1.15,2013-01-11 14:55:00,
2013-01-11 08:00:00,57.7,56.9,29.96,NE,51,2.0,2.0,97,0.00,,,0.00,Wunderground v.1.15,2013-01-11 15:00:00,
2013-01-11 08:05:00,58.3,57.5,29.96,NE,53,2.0,3.0,97,0.00,,,0.00,Wunderground v.1.15,2013-01-11 15:05:00,
2013-01-11 08:15:00,59.1,58.2,29.96,NE,53,2.0,4.0,97,0.00,,,0.00,Wunderground v.1.15,2013-01-11 15:15:00,
2013-01-11 08:20:00,59.6,59.0,29.96,NE,55,2.0,4.0,98,0.00,,,0.00,Wunderground v.1.15,2013-01-11 15:20:00,
2013-01-11 08:25:00,59.9,59.0,29.96,NE,48,2.0,4.0,97,0.00,,,0.00,Wunderground v.1.15,2013-01-11 15:25:00,
2013-01-11 08:35:00,59.9,59.0,29.96,NE,53,3.0,4.0,97,0.00,,,0.00,Wunderground v.1.15,2013-01-11 15:35:00,
2013-01-11 08:40:00,60.4,59.5,29.96,NE,53,3.0,3.0,97,0.00,,,0.00,Wunderground v.1.15,2013-01-11 15:40:00,
2013-01-11 08:45:00,60.8,59.9,29.96,NE,51,3.0,5.0,97,0.00,,,0.00,Wunderground v.1.15,2013-01-11 15:45:00,
2013-01-11 08:50:00,60.8,59.7,29.96,NE,54,4.0,4.0,96,0.00,,,0.00,Wunderground v.1.15,2013-01-11 15:50:00,
2013-01-11 09:00:00,61.3,60.2,29.96,NE,46,4.0,4.0,96,0.00,,,0.00,Wunderground v.1.15,2013-01-11 16:00:00,
2013-01-11 09:05:00,61.2,60.1,29.96,ENE,58,4.0,6.0,96,0.00,,,0.00,Wunderground v.1.15,2013-01-11 16:05:00,
2013-01-11 09:15:00,61.1,60.0,29.95,NE,54,4.0,6.0,96,0.00,,,0.00,Wunderground v.1.15,2013-01-11 16:15:00,
2013-01-11 09:20:00,61.5,60.3,29.95,NE,44,3.0,6.0,96,0.00,,,0.00,Wunderground v.1.15,2013-01-11 16:20:00,
2013-01-11 09:25:00,62.0,60.8,29.95,ESE,102,3.0,6.0,96,0.00,,,0.00,Wunderground v.1.15,2013-01-11 16:25:00,
2013-01-11 09:30:00,62.4,61.2,29.95,East,79,2.0,6.0,96,0.00,,,0.00,Wunderground v.1.15,2013-01-11 16:30:00,
2013-01-11 09:35:00,62.8,61.6,29.95,East,84,2.0,6.0,96,0.00,,,0.00,Wunderground v.1.15,2013-01-11 16:35:00,
2013-01-11 09:45:00,63.4,61.9,29.95,East,101,2.0,6.0,95,0.00,,,0.00,Wunderground v.1.15,2013-01-11 16:45:00,
2013-01-11 09:50:00,63.7,62.2,29.95,ESE,110,3.0,6.0,95,0.00,,,0.00,Wunderground v.1.15,2013-01-11 16:50:00,
2013-01-11 09:55:00,63.9,62.4,29.95,East,97,3.0,6.0,95,0.00,,,0.00,Wunderground v.1.15,2013-01-11 16:55:00,
2013-01-11 10:00:00,64.1,62.6,29.94,ESE,119,4.0,6.0,95,0.00,,,0.00,Wunderground v.1.15,2013-01-11 17:00:00,
2013-01-11 10:05:00,64.4,62.6,29.94,SE,131,4.0,6.0,94,0.00,,,0.00,Wunderground v.1.15,2013-01-11 17:05:00,
2013-01-11 10:15:00,64.4,62.6,29.93,ESE,116,6.0,6.0,94,0.00,,,0.00,Wunderground v.1.15,2013-01-11 17:15:00,
2013-01-11 10:25:00,64.6,62.8,29.93,SSE,165,5.0,6.0,94,0.00,,,0.00,Wunderground v.1.15,2013-01-11 17:25:00,
2013-01-11 10:30:00,64.8,63.0,29.93,ESE,108,5.0,5.0,94,0.00,,,0.00,Wunderground v.1.15,2013-01-11 17:30:00,
2013-01-11 10:35:00,65.0,63.2,29.92,ESE,121,5.0,6.0,94,0.00,,,0.00,Wunderground v.1.15,2013-01-11 17:35:00,
2013-01-11 10:40:00,65.2,63.4,29.92,ESE,108,5.0,6.0,94,0.00,,,0.00,Wunderground v.1.15,2013-01-11 17:40:00,
2013-01-11 10:45:00,65.6,63.8,29.92,SE,131,4.0,6.0,94,0.00,,,0.00,Wunderground v.1.15,2013-01-11 17:45:00,
2013-01-11 10:55:00,66.4,64.3,29.92,SSE,150,3.0,6.0,93,0.00,,,0.00,Wunderground v.1.15,2013-01-11 17:55:00,
2013-01-11 11:00:00,66.9,64.5,29.92,South,173,3.0,6.0,92,0.00,,,0.00,Wunderground v.1.15,2013-01-11 18:00:00,
2013-01-11 11:05:00,67.1,64.7,29.92,SE,134,4.0,7.0,92,0.00,,,0.00,Wunderground v.1.15,2013-01-11 18:05:00,
2013-01-11 11:15:00,67.3,64.6,29.90,SE,146,4.0,7.0,91,0.00,,,0.00,Wunderground v.1.15,2013-01-11 18:15:00,
2013-01-11 11:20:00,67.3,64.6,29.90,East,100,5.0,7.0,91,0.00,,,0.00,Wunderground v.1.15,2013-01-11 18:20:00,
2013-01-11 11:25:00,67.4,65.0,29.90,ENE,75,5.0,7.0,92,0.00,,,0.00,Wunderground v.1.15,2013-01-11 18:25:00,
2013-01-11 11:30:00,67.8,65.4,29.89,East,91,4.0,4.0,92,0.00,,,0.00,Wunderground v.1.15,2013-01-11 18:30:00,
2013-01-11 11:40:00,68.6,65.5,29.89,SE,124,4.0,4.0,90,0.00,,,0.00,Wunderground v.1.15,2013-01-11 18:40:00,
2013-01-11 11:45:00,68.8,65.7,29.88,SSE,160,4.0,7.0,90,0.00,,,0.00,Wunderground v.1.15,2013-01-11 18:45:00,
2013-01-11 11:50:00,68.7,65.6,29.88,SE,136,4.0,7.0,90,0.00,,,0.00,Wunderground v.1.15,2013-01-11 18:50:00,
2013-01-11 11:55:00,68.5,65.4,29.88,SSE,151,5.0,7.0,90,0.00,,,0.00,Wunderground v.1.15,2013-01-11 18:55:00,
2013-01-11 12:00:00,68.4,65.7,29.87,SE,136,6.0,7.0,91,0.00,,,0.00,Wunderground v.1.15,2013-01-11 19:00:00,
2013-01-11 12:05:00,68.4,65.7,29.87,SE,141,6.0,9.0,91,0.00,,,0.00,Wunderground v.1.15,2013-01-11 19:05:00,
2013-01-11 12:15:00,68.3,65.6,29.86,SE,127,7.0,9.0,91,0.00,,,0.00,Wunderground v.1.15,2013-01-11 19:15:00,
2013-01-11 12:20:00,68.3,65.6,29.86,SE,145,6.0,9.0,91,0.00,,,0.00,Wunderground v.1.15,2013-01-11 19:20:00,
2013-01-11 12:25:00,68.5,65.8,29.86,ESE,112,4.0,9.0,91,0.00,,,0.00,Wunderground v.1.15,2013-01-11 19:25:00,
2013-01-11 12:30:00,68.4,65.7,29.86,ESE,106,4.0,4.0,91,0.00,,,0.00,Wunderground v.1.15,2013-01-11 19:30:00,
2013-01-11 12:35:00,68.3,65.9,29.86,SE,130,5.0,7.0,92,0.00,,,0.00,Wunderground v.1.15,2013-01-11 19:35:00,
2013-01-11 12:40:00,68.2,65.8,29.86,SE,132,6.0,6.0,92,0.00,,,0.00,Wunderground v.1.15,2013-01-11 19:40:00,
2013-01-11 12:50:00,68.2,65.8,29.85,ESE,114,5.0,9.0,92,0.00,,,0.00,Wunderground v.1.15,2013-01-11 19:50:00,
2013-01-11 12:55:00,68.3,65.9,29.85,ESE,122,6.0,9.0,92,0.00,,,0.00,Wunderground v.1.15,2013-01-11 19:55:00,
2013-01-11 13:00:00,68.3,66.2,29.84,SE,130,7.0,7.0,93,0.00,,,0.00,Wunderground v.1.15,2013-01-11 20:00:00,
2013-01-11 13:05:00,68.4,66.3,29.84,SE,143,9.0,10.0,93,0.00,,,0.00,Wunderground v.1.15,2013-01-11 20:05:00,
2013-01-11 13:15:00,68.3,66.2,29.84,ESE,122,9.0,12.0,93,0.00,,,0.00,Wunderground v.1.15,2013-01-11 20:15:00,
2013-01-11 13:20:00,68.2,66.1,29.83,ESE,123,9.0,12.0,93,0.00,,,0.00,Wunderground v.1.15,2013-01-11 20:20:00,
2013-01-11 13:30:00,67.7,65.6,29.83,SE,143,8.0,8.0,93,0.00,,,0.00,Wunderground v.1.15,2013-01-11 20:30:00,
2013-01-11 13:35:00,67.6,65.5,29.83,ESE,109,7.0,12.0,93,0.00,,,0.00,Wunderground v.1.15,2013-01-11 20:35:00,
2013-01-11 13:40:00,67.7,65.9,29.83,ESE,104,7.0,12.0,94,0.00,,,0.00,Wunderground v.1.15,2013-01-11 20:40:00,
2013-01-11 13:45:00,67.6,65.8,29.83,ESE,115,7.0,12.0,94,0.00,,,0.00,Wunderground v.1.15,2013-01-11 20:45:00,
2013-01-11 13:55:00,67.4,65.6,29.83,SE,124,7.0,12.0,94,0.00,,,0.00,Wunderground v.1.15,2013-01-11 20:55:00,
2013-01-11 14:00:00,67.3,65.5,29.83,East,90,6.0,12.0,94,0.00,,,0.00,Wunderground v.1.15,2013-01-11 21:00:00,
2013-01-11 14:05:00,67.4,65.6,29.83,East,96,5.0,12.0,94,0.00,,,0.00,Wunderground v.1.15,2013-01-11 21:05:00,
2013-01-11 14:15:00,67.4,65.6,29.83,ESE,113,5.0,6.0,94,0.00,,,0.00,Wunderground v.1.15,2013-01-11 21:15:00,
2013-01-11 14:20:00,67.4,65.6,29.83,East,97,5.0,5.0,94,0.00,,,0.00,Wunderground v.1.15,2013-01-11 21:20:00,
2013-01-11 14:25:00,67.3,65.5,29.83,ESE,117,4.0,10.0,94,0.00,,,0.00,Wunderground v.1.15,2013-01-11 21:25:00,
2013-01-11 14:30:00,67.2,65.4,29.83,East,96,4.0,10.0,94,0.00,,,0.00,Wunderground v.1.15,2013-01-11 21:30:00,
2013-01-11 14:40:00,67.3,65.8,29.83,ESE,108,4.0,4.0,95,0.00,,,0.00,Wunderground v.1.15,2013-01-11 21:40:00,
2013-01-11 14:45:00,67.3,65.8,29.83,ESE,108,3.0,10.0,95,0.00,,,0.00,Wunderground v.1.15,2013-01-11 21:45:00,
2013-01-11 14:50:00,67.3,65.8,29.83,East,94,4.0,4.0,95,0.00,,,0.00,Wunderground v.1.15,2013-01-11 21:50:00,
2013-01-11 14:55:00,67.3,65.8,29.83,ESE,117,4.0,6.0,95,0.00,,,0.00,Wunderground v.1.15,2013-01-11 21:55:00,
2013-01-11 15:05:00,67.2,65.7,29.83,ESE,111,6.0,6.0,95,0.00,,,0.00,Wunderground v.1.15,2013-01-11 22:05:00,
2013-01-11 15:15:00,67.0,65.5,29.82,East,84,6.0,9.0,95,0.00,,,0.00,Wunderground v.1.15,2013-01-11 22:15:00,
2013-01-11 15:20:00,67.0,65.5,29.82,ESE,119,7.0,9.0,95,0.00,,,0.00,Wunderground v.1.15,2013-01-11 22:20:00,
2013-01-11 15:25:00,66.9,65.7,29.82,East,88,8.0,9.0,96,0.00,,,0.00,Wunderground v.1.15,2013-01-11 22:25:00,
2013-01-11 15:30:00,66.9,65.7,29.82,East,99,8.0,11.0,96,0.00,,,0.00,Wunderground v.1.15,2013-01-11 22:30:00,
2013-01-11 15:35:00,67.1,65.9,29.82,ESE,112,9.0,11.0,96,0.00,,,0.00,Wunderground v.1.15,2013-01-11 22:35:00,
2013-01-11 15:40:00,67.2,66.0,29.82,ESE,121,9.0,9.0,96,0.00,,,0.00,Wunderground v.1.15,2013-01-11 22:40:00,
2013-01-11 15:50:00,67.0,65.8,29.81,ESE,108,9.0,9.0,96,0.00,,,0.00,Wunderground v.1.15,2013-01-11 22:50:00,
2013-01-11 15:55:00,67.0,65.8,29.81,ESE,123,9.0,9.0,96,0.00,,,0.00,Wunderground v.1.15,2013-01-11 22:55:00,
2013-01-11 16:00:00,66.9,65.7,29.81,ESE,117,10.0,11.0,96,0.00,,,0.00,Wunderground v.1.15,2013-01-11 23:00:00,
2013-01-11 16:05:00,66.9,66.0,29.81,East,101,9.0,13.0,97,0.00,,,0.00,Wunderground v.1.15,2013-01-11 23:05:00,
2013-01-11 16:15:00,66.9,66.0,29.81,ESE,106,9.0,13.0,97,0.00,,,0.00,Wunderground v.1.15,2013-01-11 23:15:00,
2013-01-11 16:20:00,66.9,66.0,29.81,SE,130,9.0,9.0,97,0.00,,,0.00,Wunderground v.1.15,2013-01-11 23:20:00,
2013-01-11 16:30:00,66.6,65.7,29.82,East,97,6.0,13.0,97,0.00,,,0.00,Wunderground v.1.15,2013-01-11 23:30:00,
2013-01-11 16:35:00,66.5,65.6,29.81,ESE,106,6.0,13.0,97,0.00,,,0.00,Wunderground v.1.15,2013-01-11 23:35:00,
2013-01-11 16:40:00,66.4,65.5,29.81,East,101,6.0,6.0,97,0.00,,,0.00,Wunderground v.1.15,2013-01-11 23:40:00,
2013-01-11 16:45:00,66.1,65.2,29.81,East,81,6.0,13.0,97,0.00,,,0.00,Wunderground v.1.15,2013-01-11 23:45:00,
2013-01-11 16:50:00,65.9,65.0,29.81,East,91,5.0,13.0,97,0.00,,,0.00,Wunderground v.1.15,2013-01-11 23:50:00,
2013-01-11 17:00:00,65.6,64.7,29.80,ESE,108,5.0,13.0,97,0.00,,,0.00,Wunderground v.1.15,2013-01-12 00:00:00,
2013-01-11 17:05:00,65.7,65.1,29.80,ESE,116,7.0,13.0,98,0.00,,,0.00,Wunderground v.1.15,2013-01-12 00:05:00,
2013-01-11 17:15:00,66.4,65.8,29.80,East,95,10.0,12.0,98,0.00,,,0.00,Wunderground v.1.15,2013-01-12 00:15:00,
2013-01-11 17:25:00,65.9,65.0,29.80,SE,130,7.0,7.0,97,0.00,,,0.00,Wunderground v.1.15,2013-01-12 00:25:00,
2013-01-11 17:30:00,65.8,65.2,29.80,ESE,117,7.0,9.0,98,0.00,,,0.00,Wunderground v.1.15,2013-01-12 00:30:00,
2013-01-11 17:35:00,65.9,65.3,29.80,SE,127,7.0,7.0,98,0.00,,,0.00,Wunderground v.1.15,2013-01-12 00:35:00,
2013-01-11 17:40:00,65.9,65.3,29.80,ESE,104,7.0,12.0,98,0.00,,,0.00,Wunderground v.1.15,2013-01-12 00:40:00,
2013-01-11 17:45:00,66.0,65.4,29.80,SE,137,7.0,12.0,98,0.00,,,0.00,Wunderground v.1.15,2013-01-12 00:45:00,
2013-01-11 17:50:00,66.1,65.5,29.80,SE,124,8.0,12.0,98,0.00,,,0.00,Wunderground v.1.15,2013-01-12 00:50:00,
2013-01-11 17:55:00,66.0,65.4,29.80,East,101,7.0,12.0,98,0.00,,,0.00,Wunderground v.1.15,2013-01-12 00:55:00,
2013-01-11 18:05:00,65.6,65.0,29.81,East,96,5.0,10.0,98,0.00,,,0.00,Wunderground v.1.15,2013-01-12 01:05:00,
2013-01-11 18:15:00,65.5,64.9,29.81,ESE,104,4.0,10.0,98,0.00,,,0.00,Wunderground v.1.15,2013-01-12 01:15:00,
2013-01-11 18:20:00,65.4,64.8,29.81,SE,124,5.0,5.0,98,0.00,,,0.00,Wunderground v.1.15,2013-01-12 01:20:00,
2013-01-11 18:25:00,65.4,64.8,29.81,ESE,112,6.0,8.0,98,0.00,,,0.00,Wunderground v.1.15,2013-01-12 01:25:00,
2013-01-11 18:30:00,65.4,64.8,29.80,SE,142,7.0,7.0,98,0.00,,,0.00,Wunderground v.1.15,2013-01-12 01:30:00,
2013-01-11 18:35:00,65.6,65.0,29.81,SE,131,7.0,10.0,98,0.00,,,0.00,Wunderground v.1.15,2013-01-12 01:35:00,
2013-01-11 18:40:00,65.9,65.3,29.81,ESE,117,6.0,6.0,98,0.00,,,0.00,Wunderground v.1.15,2013-01-12 01:40:00,
2013-01-11 18:50:00,66.1,65.5,29.82,SSE,151,4.0,4.0,98,0.00,,,0.00,Wunderground v.1.15,2013-01-12 01:50:00,
2013-01-11 18:55:00,66.0,65.4,29.81,ESE,117,3.0,5.0,98,0.00,,,0.00,Wunderground v.1.15,2013-01-12 01:55:00,
2013-01-11 19:00:00,65.9,65.3,29.82,ENE,70,4.0,10.0,98,0.00,,,0.00,Wunderground v.1.15,2013-01-12 02:00:00,
2013-01-11 19:05:00,65.8,65.2,29.82,East,101,3.0,10.0,98,0.00,,,0.00,Wunderground v.1.15,2013-01-12 02:05:00,
2013-01-11 19:15:00,66.4,66.1,29.82,SSE,153,4.0,6.0,99,0.00,,,0.00,Wunderground v.1.15,2013-01-12 02:15:00,
2013-01-11 19:20:00,66.2,65.6,29.82,SSE,153,4.0,6.0,98,0.00,,,0.00,Wunderground v.1.15,2013-01-12 02:20:00,
2013-01-11 19:25:00,66.1,65.5,29.83,SE,146,3.0,6.0,98,0.00,,,0.00,Wunderground v.1.15,2013-01-12 02:25:00,
2013-01-11 19:30:00,66.2,65.6,29.83,SE,143,4.0,6.0,98,0.00,,,0.00,Wunderground v.1.15,2013-01-12 02:30:00,
2013-01-11 19:35:00,66.1,65.5,29.82,SE,130,4.0,6.0,98,0.00,,,0.00,Wunderground v.1.15,2013-01-12 02:35:00,
2013-01-11 19:45:00,65.9,65.3,29.82,SSE,153,3.0,6.0,98,0.00,,,0.00,Wunderground v.1.15,2013-01-12 02:45:00,
2013-01-11 19:50:00,66.2,65.6,29.82,SE,143,4.0,6.0,98,0.00,,,0.00,Wunderground v.1.15,2013-01-12 02:50:00,
2013-01-11 20:00:00,66.4,65.8,29.82,SSE,148,5.0,5.0,98,0.00,,,0.00,Wunderground v.1.15,2013-01-12 03:00:00,
2013-01-11 20:05:00,66.9,66.6,29.81,SSE,160,7.0,8.0,99,0.00,,,0.00,Wunderground v.1.15,2013-01-12 03:05:00,
2013-01-11 20:15:00,66.7,66.1,29.81,SSE,147,7.0,11.0,98,0.00,,,0.00,Wunderground v.1.15,2013-01-12 03:15:00,
2013-01-11 20:20:00,66.4,65.8,29.82,SE,134,6.0,6.0,98,0.00,,,0.00,Wunderground v.1.15,2013-01-12 03:20:00,
2013-01-11 20:25:00,66.2,65.6,29.82,South,174,4.0,11.0,98,0.00,,,0.00,Wunderground v.1.15,2013-01-12 03:25:00,
2013-01-11 20:30:00,66.3,65.7,29.82,SSE,148,3.0,11.0,98,0.00,,,0.00,Wunderground v.1.15,2013-01-12 03:30:00,
2013-01-11 20:35:00,66.3,65.7,29.82,South,176,3.0,11.0,98,0.00,,,0.00,Wunderground v.1.15,2013-01-12 03:35:00,
2013-01-11 20:40:00,66.2,65.6,29.82,SSE,162,4.0,11.0,98,0.00,,,0.00,Wunderground v.1.15,2013-01-12 03:40:00,
2013-01-11 20:50:00,66.3,65.7,29.83,South,169,3.0,11.0,98,0.00,,,0.00,Wunderground v.1.15,2013-01-12 03:50:00,
2013-01-11 20:55:00,66.5,66.2,29.83,SSW,197,2.0,11.0,99,0.00,,,0.00,Wunderground v.1.15,2013-01-12 03:55:00,
2013-01-11 21:00:00,66.7,66.4,29.83,SSE,153,2.0,2.0,99,0.00,,,0.00,Wunderground v.1.15,2013-01-12 04:00:00,
2013-01-11 21:05:00,66.9,66.6,29.83,SSE,162,2.0,4.0,99,0.00,,,0.00,Wunderground v.1.15,2013-01-12 04:05:00,
2013-01-11 21:15:00,67.0,66.7,29.83,SE,142,2.0,4.0,99,0.00,,,0.00,Wunderground v.1.15,2013-01-12 04:15:00,
2013-01-11 21:20:00,67.1,66.8,29.83,South,174,2.0,2.0,99,0.00,,,0.00,Wunderground v.1.15,2013-01-12 04:20:00,
2013-01-11 21:25:00,67.3,67.0,29.84,SSW,210,3.0,3.0,99,0.00,,,0.00,Wunderground v.1.15,2013-01-12 04:25:00,
2013-01-11 21:30:00,67.4,67.1,29.84,South,169,4.0,5.0,99,0.00,,,0.00,Wunderground v.1.15,2013-01-12 04:30:00,
2013-01-11 21:35:00,67.2,66.9,29.84,SE,145,4.0,5.0,99,0.00,,,0.00,Wunderground v.1.15,2013-01-12 04:35:00,
2013-01-11 21:45:00,67.0,66.4,29.84,SSE,168,3.0,4.0,98,0.00,,,0.00,Wunderground v.1.15,2013-01-12 04:45:00,
2013-01-11 21:50:00,66.9,66.3,29.84,South,174,3.0,4.0,98,0.00,,,0.00,Wunderground v.1.15,2013-01-12 04:50:00,
2013-01-11 21:55:00,66.8,66.2,29.84,SSW,198,3.0,4.0,98,0.00,,,0.00,Wunderground v.1.15,2013-01-12 04:55:00,
2013-01-11 22:00:00,66.7,66.1,29.84,SSE,153,3.0,4.0,98,0.00,,,0.00,Wunderground v.1.15,2013-01-12 05:00:00,
2013-01-11 22:05:00,66.7,66.1,29.84,SSE,162,4.0,6.0,98,0.00,,,0.00,Wunderground v.1.15,2013-01-12 05:05:00,
2013-01-11 22:15:00,66.3,65.7,29.84,SE,146,3.0,6.0,98,0.00,,,0.00,Wunderground v.1.15,2013-01-12 05:15:00,
2013-01-11 22:20:00,66.6,66.0,29.83,South,181,4.0,6.0,98,0.00,,,0.00,Wunderground v.1.15,2013-01-12 05:20:00,
2013-01-11 22:25:00,67.2,66.9,29.83,SSE,157,5.0,6.0,99,0.00,,,0.00,Wunderground v.1.15,2013-01-12 05:25:00,
2013-01-11 22:30:00,67.5,67.2,29.83,SSW,195,6.0,7.0,99,0.00,,,0.00,Wunderground v.1.15,2013-01-12 05:30:00,
2013-01-11 22:35:00,67.5,67.2,29.83,SE,143,7.0,7.0,99,0.00,,,0.00,Wunderground v.1.15,2013-01-12 05:35:00,
2013-01-11 22:40:00,67.3,67.0,29.83,SSE,150,7.0,7.0,99,0.00,,,0.00,Wunderground v.1.15,2013-01-12 05:40:00,
2013-01-11 22:50:00,66.8,66.2,29.83,SSW,204,6.0,6.0,98,0.00,,,0.00,Wunderground v.1.15,2013-01-12 05:50:00,
2013-01-11 22:55:00,66.7,66.1,29.83,South,172,5.0,6.0,98,0.00,,,0.00,Wunderground v.1.15,2013-01-12 05:55:00,
2013-01-11 23:00:00,66.5,65.9,29.83,WSW,249,4.0,4.0,98,0.00,,,0.00,Wunderground v.1.15,2013-01-12 06:00:00,
2013-01-11 23:05:00,66.6,66.0,29.83,South,184,4.0,8.0,98,0.00,,,0.00,Wunderground v.1.15,2013-01-12 06:05:00,
2013-01-11 23:15:00,67.0,66.7,29.83,South,176,4.0,6.0,99,0.00,,,0.00,Wunderground v.1.15,2013-01-12 06:15:00,
2013-01-11 23:20:00,67.0,66.7,29.83,SSE,160,4.0,4.0,99,0.00,,,0.00,Wunderground v.1.15,2013-01-12 06:20:00,
2013-01-11 23:30:00,66.8,66.5,29.83,SSE,153,4.0,8.0,99,0.00,,,0.00,Wunderground v.1.15,2013-01-12 06:30:00,
2013-01-11 23:35:00,66.8,66.5,29.83,SSE,159,4.0,8.0,99,0.00,,,0.00,Wunderground v.1.15,2013-01-12 06:35:00,
2013-01-11 23:40:00,66.7,66.4,29.82,SE,146,4.0,8.0,99,0.00,,,0.00,Wunderground v.1.15,2013-01-12 06:40:00,
2013-01-11 23:50:00,66.5,65.9,29.82,SSE,154,5.0,8.0,98,0.00,,,0.00,Wunderground v.1.15,2013-01-12 06:50:00,
2013-01-11 23:55:00,66.8,66.5,29.82,SSE,152,6.0,8.0,99,0.00,,,0.00,Wunderground v.1.15,2013-01-12 06:55:00,